LEBL Airport Information

Runway Information
Runway 02 Length 8333 ft width 148 ft
Elevation 7 ft Threshold 131 ft Heading 19
Runway 20 Length 8333 ft Width 148 ft
Elevation 12 ft Threshold 0 ft Heading 199
Runway 07L Length 11654 ft width 148 ft
Elevation 8 ft Threshold 295 ft Heading 66
Runway 25R Length 11654 ft Width 148 ft
Elevation 10 ft Threshold 0 ft Heading 246
Runway 07R Length 8727 ft width 197 ft
Elevation 8 ft Threshold 0 ft Heading 66
Runway 25L Length 8727 ft Width 197 ft
Elevation 8 ft Threshold 0 ft Heading 246
Airport Frequencies
Type APP Name APP Frequency 119.1 MHZ
Type ATIS Name ATIS Frequency 118.65 MHZ
Type CLD Name CLNC DEL Frequency 121.8 MHZ
Type GND Name GND Frequency 121.65 MHZ
Type TWR Name TWR Frequency 118.1 MHZ
Airport Navaids
Type VOR-DME Name Barcelona Frequency 116700 KHZ
Type VOR-DME Name El Prat Frequency 114300 KHZ
Type VOR-DME Name Sabadell Frequency 112000 KHZ
Type NDB Name Villanueva Frequency 380 KHZ
Airport Weather Information & NOTAM
ADDS - METARS form results

(1026 UTC 24 June 2018)
 
METAR text: LEBL 241000Z 11009KT 080V150 9999 FEW030 25/16 Q1018 NOSIG
Conditions at: LEBL (BARCELONA AIRPOR, ES) observed 1000 UTC 24 June 2018
Temperature: 25.0°C (77°F)
Dewpoint: 16.0°C (61°F) [RH = 57%]
Pressure (altimeter): 30.06 inches Hg (1018.0 mb)
Winds: from the ESE (110 degrees) at 10 MPH (9 knots; 4.7 m/s)
Visibility: 6 or more miles (10+ km)
Ceiling: at least 12,000 feet AGL
Clouds: few clouds at 3000 feet AGL
Weather: no significant weather observed at this time

METAR text: LEBL 240930Z 09009KT 060V120 9999 FEW030 25/17 Q1018 NOSIG
Conditions at: LEBL (BARCELONA AIRPOR, ES) observed 0930 UTC 24 June 2018
Temperature: 25.0°C (77°F)
Dewpoint: 17.0°C (63°F) [RH = 61%]
Pressure (altimeter): 30.06 inches Hg (1018.0 mb)
Winds: from the E (90 degrees) at 10 MPH (9 knots; 4.7 m/s)
Visibility: 6 or more miles (10+ km)
Ceiling: at least 12,000 feet AGL
Clouds: few clouds at 3000 feet AGL
Weather: no significant weather observed at this time